Location: Gisborne
(38.6530°S, 178.0040°E)
Time: 19:04:57
(UTC+13:00)

SJ-6B - Pass Details

Date: 24 January 2019
Orbit: 511 x 582 km, 97.7° (Epoch: 21 February)

Event Time Altitude Azimuth Distance (km) Brightness Sun altitude
Rises 20:54:05 0° 156° (SSE) 2,664 6.4 -5.1°
Reaches altitude 10° 20:56:24 10° 145° (SE) 1,771 5.4 -5.5°
Maximum altitude 20:59:45 29° 83° (E) 985 3.6 -6.0°
Drops below altitude 10° 21:03:06 10° 21° (NNE) 1,767 4.9 -6.6°
Sets 21:05:24 0° 10° (N) 2,656 5.9 -7.0°
